sat.trackr.live / text

‹ back to catalog

IRIDIUM 168

NORAD 43924 · 2019-002C

PAYLOAD ACTIVE UNKNOWN

§ Identity

Operator
Country
US
Launch date
2019-01-11
Launch site
AFWTR
Launch vehicle
Mass (kg)
RCS (m²)

Purposes: comms

External: N2YO · Heavens-Above · Gunter

§ Orbital elements

Epoch: 2026-05-25T02:32:38.954688Z

Period
100.40 min
Inclination
86.3987°
Eccentricity
0.0002161
Mean motion
14.34217813 rev/d
Perigee alt
776.1 km
Apogee alt
779.2 km
Semi-major
7,155.8 km
B*
1.1499e-5
RAAN
3.3240°
Arg perigee
87.2426°
Mean anomaly
272.9017°
Rev number
38,566

§ Raw data

IRIDIUM 1681 43924U 19002C   26145.10600642  .00000052  00000+0  11499-4 0  99952 43924  86.3987   3.3240 0002161  87.2426 272.9017 14.34217813385666

JSON: /api/v1/satellites/43924 · /tle

For live sub-satellite position, see the globe view (requires WebGL).

§ Visibility from observer

Set your observer location to see the next 7 days of passes ≥ 10°. The values pass through the URL so the page stays shareable.

No JS? Fill the form by hand. The geolocation button needs JavaScript.